Time,TemperatureF,DewpointF,PressureIn,WindDirection,WindDirectionDegrees,WindSpeedMPH,WindSpeedGustMPH,Humidity,HourlyPrecipIn,Conditions,Clouds,dailyrainin,SolarRadiationWatts/m^2,SoftwareType,DateUTC
2017-10-22 00:03:00,50.2,47.7,30.32,SW,220,0.0,0.0,91,0.00,,,0.00,0.00,Weather logger V3.0.,2017-10-22 04:03:00,
2017-10-22 00:08:00,50.2,47.7,30.32,WSW,237,0.0,0.0,91,0.00,,,0.00,0.00,Weather logger V3.0.,2017-10-22 04:08:00,
2017-10-22 00:13:00,50.2,48.0,30.32,WSW,258,0.0,0.0,92,0.00,,,0.00,0.00,Weather logger V3.0.,2017-10-22 04:13:00,
2017-10-22 00:18:00,50.0,48.0,30.33,West,276,0.0,0.0,93,0.00,,,0.00,0.00,Weather logger V3.0.,2017-10-22 04:18:00,
2017-10-22 00:23:00,49.8,47.8,30.32,NW,322,0.0,0.0,93,0.00,,,0.00,0.00,Weather logger V3.0.,2017-10-22 04:23:00,
2017-10-22 00:28:00,49.6,48.0,30.32,NW,311,0.0,0.0,94,0.00,,,0.00,0.00,Weather logger V3.0.,2017-10-22 04:28:00,
2017-10-22 00:33:00,49.6,48.0,30.32,NW,306,0.0,0.0,94,0.00,,,0.00,0.00,Weather logger V3.0.,2017-10-22 04:33:00,
2017-10-22 00:38:00,49.5,48.0,30.33,ENE,76,0.0,0.0,95,0.00,,,0.00,0.00,Weather logger V3.0.,2017-10-22 04:38:00,
2017-10-22 00:43:00,49.3,48.0,30.32,ENE,76,0.0,0.0,95,0.00,,,0.00,0.00,Weather logger V3.0.,2017-10-22 04:43:00,
2017-10-22 00:48:00,49.3,48.0,30.32,West,268,0.0,0.0,95,0.00,,,0.00,0.00,Weather logger V3.0.,2017-10-22 04:48:00,
2017-10-22 00:53:00,49.3,48.0,30.32,NW,309,0.0,0.0,95,0.00,,,0.00,0.00,Weather logger V3.0.,2017-10-22 04:53:00,
2017-10-22 00:58:00,49.1,47.8,30.32,NNW,337,0.0,0.0,95,0.00,,,0.00,0.00,Weather logger V3.0.,2017-10-22 04:58:00,
2017-10-22 01:03:00,49.1,48.0,30.32,North,1,0.0,0.0,96,0.00,,,0.00,0.00,Weather logger V3.0.,2017-10-22 05:03:00,
2017-10-22 01:08:00,49.1,48.0,30.33,ENE,73,0.0,0.0,96,0.00,,,0.00,0.00,Weather logger V3.0.,2017-10-22 05:08:00,
2017-10-22 01:14:00,49.1,48.0,30.33,ENE,76,0.0,0.0,96,0.00,,,0.00,0.00,Weather logger V3.0.,2017-10-22 05:14:00,
2017-10-22 01:19:00,49.1,47.8,30.33,ENE,76,0.0,0.0,95,0.00,,,0.00,0.00,Weather logger V3.0.,2017-10-22 05:19:00,
2017-10-22 01:24:00,48.9,47.8,30.32,NNE,30,0.0,0.0,96,0.00,,,0.00,0.00,Weather logger V3.0.,2017-10-22 05:24:00,
2017-10-22 01:29:00,48.9,47.8,30.33,NNE,29,0.0,0.0,96,0.00,,,0.00,0.00,Weather logger V3.0.,2017-10-22 05:29:00,
2017-10-22 01:34:00,48.9,47.8,30.32,NNE,23,0.0,0.0,96,0.00,,,0.00,0.00,Weather logger V3.0.,2017-10-22 05:34:00,
2017-10-22 01:39:00,48.7,47.7,30.33,NNE,17,0.0,0.0,96,0.00,,,0.00,0.00,Weather logger V3.0.,2017-10-22 05:39:00,
2017-10-22 01:44:00,48.6,47.5,30.33,North,5,0.0,0.0,96,0.00,,,0.00,0.00,Weather logger V3.0.,2017-10-22 05:44:00,
2017-10-22 01:49:00,48.6,47.5,30.33,NNE,24,0.0,0.0,96,0.00,,,0.00,0.00,Weather logger V3.0.,2017-10-22 05:49:00,
2017-10-22 01:55:00,48.4,47.3,30.32,South,190,0.0,0.0,96,0.00,,,0.00,0.00,Weather logger V3.0.,2017-10-22 05:55:00,
2017-10-22 02:00:00,48.4,47.3,30.32,WSW,254,0.0,0.0,96,0.00,,,0.00,0.00,Weather logger V3.0.,2017-10-22 06:00:00,
2017-10-22 02:06:00,48.2,47.1,30.33,West,270,0.0,0.0,96,0.00,,,0.00,0.00,Weather logger V3.0.,2017-10-22 06:06:00,
2017-10-22 02:11:00,48.0,47.3,30.32,West,267,0.0,0.0,97,0.00,,,0.00,0.00,Weather logger V3.0.,2017-10-22 06:11:00,
2017-10-22 02:16:00,47.8,47.1,30.32,West,267,0.0,0.0,97,0.00,,,0.00,0.00,Weather logger V3.0.,2017-10-22 06:16:00,
2017-10-22 02:21:00,47.7,47.1,30.32,WSW,250,0.0,0.0,98,0.00,,,0.00,0.00,Weather logger V3.0.,2017-10-22 06:21:00,
2017-10-22 02:26:00,47.3,46.8,30.32,WSW,251,0.0,0.0,98,0.00,,,0.00,0.00,Weather logger V3.0.,2017-10-22 06:26:00,
2017-10-22 02:31:00,46.9,46.8,30.32,WSW,250,0.0,0.0,99,0.00,,,0.00,0.00,Weather logger V3.0.,2017-10-22 06:31:00,
2017-10-22 02:36:00,46.8,46.0,30.32,WSW,244,0.0,0.0,97,0.00,,,0.00,0.00,Weather logger V3.0.,2017-10-22 06:36:00,
2017-10-22 02:41:00,46.6,45.9,30.33,West,265,0.0,0.0,97,0.00,,,0.00,0.00,Weather logger V3.0.,2017-10-22 06:41:00,
2017-10-22 02:46:00,46.2,45.5,30.33,West,264,0.0,0.0,97,0.00,,,0.00,0.00,Weather logger V3.0.,2017-10-22 06:46:00,
2017-10-22 02:51:00,46.2,45.5,30.32,West,263,0.0,0.0,97,0.00,,,0.00,0.00,Weather logger V3.0.,2017-10-22 06:51:00,
2017-10-22 02:56:00,46.0,45.3,30.32,West,263,0.0,0.0,97,0.00,,,0.00,0.00,Weather logger V3.0.,2017-10-22 06:56:00,
2017-10-22 03:02:00,45.9,45.1,30.33,NW,325,0.0,0.0,97,0.00,,,0.00,0.00,Weather logger V3.0.,2017-10-22 07:02:00,
2017-10-22 03:07:00,46.0,45.9,30.32,NNW,328,0.0,0.0,99,0.00,,,0.00,0.00,Weather logger V3.0.,2017-10-22 07:07:00,
2017-10-22 03:12:00,46.0,45.9,30.32,NNW,340,0.0,0.0,99,0.00,,,0.00,0.00,Weather logger V3.0.,2017-10-22 07:12:00,
2017-10-22 03:17:00,46.0,45.9,30.33,NNW,337,0.0,0.0,99,0.00,,,0.00,0.00,Weather logger V3.0.,2017-10-22 07:17:00,
2017-10-22 03:22:00,46.2,46.0,30.32,NNW,335,0.0,0.0,99,0.00,,,0.00,0.00,Weather logger V3.0.,2017-10-22 07:22:00,
2017-10-22 03:27:00,46.4,46.2,30.33,NNW,340,0.0,0.0,99,0.00,,,0.00,0.00,Weather logger V3.0.,2017-10-22 07:27:00,
2017-10-22 03:32:00,46.6,46.4,30.33,NNW,344,0.0,0.0,99,0.00,,,0.00,0.00,Weather logger V3.0.,2017-10-22 07:32:00,
2017-10-22 03:37:00,46.6,46.4,30.33,NNW,345,0.0,0.0,99,0.00,,,0.00,0.00,Weather logger V3.0.,2017-10-22 07:37:00,
2017-10-22 03:42:00,46.8,46.6,30.33,NNW,335,0.0,0.0,99,0.00,,,0.00,0.00,Weather logger V3.0.,2017-10-22 07:42:00,
2017-10-22 03:47:00,46.8,46.6,30.33,WNW,283,0.0,0.0,99,0.00,,,0.00,0.00,Weather logger V3.0.,2017-10-22 07:47:00,
2017-10-22 03:52:00,46.8,46.6,30.33,WNW,284,0.0,0.0,99,0.00,,,0.00,0.00,Weather logger V3.0.,2017-10-22 07:52:00,
2017-10-22 03:57:00,46.8,46.6,30.33,NNW,334,0.0,0.0,99,0.00,,,0.00,0.00,Weather logger V3.0.,2017-10-22 07:57:00,
2017-10-22 04:00:00,46.8,46.6,30.34,NNW,335,0.0,0.0,99,0.00,,,0.00,0.00,Weather logger V3.0.,2017-10-22 08:00:00,
2017-10-22 04:05:00,46.8,46.6,30.34,NNW,338,0.0,0.0,99,0.00,,,0.00,0.00,Weather logger V3.0.,2017-10-22 08:05:00,
2017-10-22 04:10:00,46.8,46.6,30.34,NNW,340,0.0,0.0,99,0.00,,,0.00,0.00,Weather logger V3.0.,2017-10-22 08:10:00,
2017-10-22 04:15:00,46.8,46.6,30.34,NNW,336,0.0,0.0,99,0.00,,,0.00,0.00,Weather logger V3.0.,2017-10-22 08:15:00,
2017-10-22 04:20:00,46.8,46.6,30.33,WNW,283,0.0,0.0,99,0.00,,,0.00,0.00,Weather logger V3.0.,2017-10-22 08:20:00,
2017-10-22 04:25:00,46.8,46.0,30.33,West,259,0.0,0.0,97,0.00,,,0.00,0.00,Weather logger V3.0.,2017-10-22 08:25:00,
2017-10-22 04:30:00,46.8,46.6,30.33,ESE,120,0.0,0.0,99,0.00,,,0.00,0.00,Weather logger V3.0.,2017-10-22 08:30:00,
2017-10-22 04:35:00,46.8,46.6,30.34,East,98,0.0,0.0,99,0.00,,,0.00,0.00,Weather logger V3.0.,2017-10-22 08:35:00,
2017-10-22 04:40:00,46.6,46.4,30.34,NNW,338,0.0,0.0,99,0.00,,,0.00,0.00,Weather logger V3.0.,2017-10-22 08:40:00,
2017-10-22 04:45:00,46.6,46.4,30.34,NNW,344,0.0,0.0,99,0.00,,,0.00,0.00,Weather logger V3.0.,2017-10-22 08:45:00,
2017-10-22 04:50:00,46.6,46.4,30.34,NNW,345,0.0,0.0,99,0.00,,,0.00,0.00,Weather logger V3.0.,2017-10-22 08:50:00,
2017-10-22 04:55:00,46.8,46.6,30.34,NNW,341,0.0,0.0,99,0.00,,,0.00,0.00,Weather logger V3.0.,2017-10-22 08:55:00,
2017-10-22 05:00:00,46.6,46.4,30.35,NW,322,0.0,0.0,99,0.00,,,0.00,0.00,Weather logger V3.0.,2017-10-22 09:00:00,
2017-10-22 05:06:00,46.6,46.4,30.34,NNW,331,0.0,0.0,99,0.00,,,0.00,0.00,Weather logger V3.0.,2017-10-22 09:06:00,
2017-10-22 05:11:00,46.4,45.7,30.35,WSW,247,0.0,0.0,97,0.00,,,0.00,0.00,Weather logger V3.0.,2017-10-22 09:11:00,
2017-10-22 05:16:00,46.4,45.7,30.34,SSW,202,0.0,0.0,97,0.00,,,0.00,0.00,Weather logger V3.0.,2017-10-22 09:16:00,
2017-10-22 05:21:00,46.2,45.5,30.35,SSW,203,0.0,0.0,97,0.00,,,0.00,0.00,Weather logger V3.0.,2017-10-22 09:21:00,
2017-10-22 05:26:00,46.2,45.5,30.35,SSW,208,0.0,0.0,97,0.00,,,0.00,0.00,Weather logger V3.0.,2017-10-22 09:26:00,
2017-10-22 05:31:00,46.0,45.3,30.35,WSW,245,0.0,0.0,97,0.00,,,0.00,0.00,Weather logger V3.0.,2017-10-22 09:31:00,
2017-10-22 05:36:00,46.0,45.3,30.35,WSW,246,0.0,0.0,97,0.00,,,0.00,0.00,Weather logger V3.0.,2017-10-22 09:36:00,
2017-10-22 05:42:00,45.9,45.1,30.35,SW,230,0.0,0.0,97,0.00,,,0.00,0.00,Weather logger V3.0.,2017-10-22 09:42:00,
2017-10-22 05:47:00,45.7,45.0,30.35,West,267,0.0,0.0,97,0.00,,,0.00,0.00,Weather logger V3.0.,2017-10-22 09:47:00,
2017-10-22 05:52:00,45.5,44.8,30.35,West,259,0.0,0.0,97,0.00,,,0.00,0.00,Weather logger V3.0.,2017-10-22 09:52:00,
2017-10-22 05:57:00,45.3,44.6,30.35,SW,234,0.0,0.0,97,0.00,,,0.00,0.00,Weather logger V3.0.,2017-10-22 09:57:00,
2017-10-22 06:02:00,45.3,44.6,30.36,South,184,0.0,0.0,97,0.00,,,0.00,0.00,Weather logger V3.0.,2017-10-22 10:02:00,
2017-10-22 06:07:00,45.1,44.4,30.35,WNW,287,0.0,0.0,97,0.00,,,0.00,0.00,Weather logger V3.0.,2017-10-22 10:07:00,
2017-10-22 06:12:00,45.1,44.4,30.35,NNE,12,0.0,0.0,97,0.00,,,0.00,0.00,Weather logger V3.0.,2017-10-22 10:12:00,
2017-10-22 06:17:00,45.1,44.4,30.36,North,9,0.0,0.0,97,0.00,,,0.00,0.00,Weather logger V3.0.,2017-10-22 10:17:00,
2017-10-22 06:23:00,45.3,44.6,30.36,NNW,334,0.0,0.0,97,0.00,,,0.00,0.00,Weather logger V3.0.,2017-10-22 10:23:00,
2017-10-22 06:28:00,45.3,44.6,30.37,WNW,285,0.0,0.0,97,0.00,,,0.00,0.00,Weather logger V3.0.,2017-10-22 10:28:00,
2017-10-22 06:33:00,45.3,44.6,30.36,West,279,0.0,0.0,97,0.00,,,0.00,0.00,Weather logger V3.0.,2017-10-22 10:33:00,
2017-10-22 06:38:00,45.1,44.4,30.36,WNW,292,0.0,0.0,97,0.00,,,0.00,0.00,Weather logger V3.0.,2017-10-22 10:38:00,
2017-10-22 06:43:00,45.1,44.4,30.36,NNW,344,0.0,0.0,97,0.00,,,0.00,0.00,Weather logger V3.0.,2017-10-22 10:43:00,
2017-10-22 06:49:00,45.1,44.4,30.36,NNW,341,0.0,0.0,97,0.00,,,0.00,0.00,Weather logger V3.0.,2017-10-22 10:49:00,
2017-10-22 06:54:00,45.0,44.2,30.36,NNW,332,0.0,0.0,97,0.00,,,0.00,0.00,Weather logger V3.0.,2017-10-22 10:54:00,
2017-10-22 06:59:00,44.8,44.1,30.37,North,355,0.0,0.0,97,0.00,,,0.00,0.00,Weather logger V3.0.,2017-10-22 10:59:00,
2017-10-22 07:04:00,44.6,44.1,30.37,NNW,338,0.0,0.0,98,0.00,,,0.00,0.00,Weather logger V3.0.,2017-10-22 11:04:00,
2017-10-22 07:09:00,44.4,43.9,30.37,West,281,0.0,0.0,98,0.00,,,0.00,1.49,Weather logger V3.0.,2017-10-22 11:09:00,
2017-10-22 07:14:00,44.4,43.9,30.37,North,359,0.0,0.0,98,0.00,,,0.00,4.23,Weather logger V3.0.,2017-10-22 11:14:00,
2017-10-22 07:19:00,44.2,43.7,30.37,NE,35,0.0,0.0,98,0.00,,,0.00,7.26,Weather logger V3.0.,2017-10-22 11:19:00,
2017-10-22 07:24:00,44.1,43.5,30.37,WSW,258,0.0,0.0,98,0.00,,,0.00,11.56,Weather logger V3.0.,2017-10-22 11:24:00,
2017-10-22 07:29:00,43.9,43.3,30.37,WSW,249,0.0,0.0,98,0.00,,,0.00,17.14,Weather logger V3.0.,2017-10-22 11:29:00,
2017-10-22 07:34:00,43.7,43.2,30.38,WSW,254,0.0,0.0,98,0.00,,,0.00,21.48,Weather logger V3.0.,2017-10-22 11:34:00,
2017-10-22 07:40:00,43.7,43.2,30.37,West,271,0.0,0.0,98,0.00,,,0.00,27.07,Weather logger V3.0.,2017-10-22 11:40:00,
2017-10-22 07:45:00,43.7,43.2,30.37,West,275,0.0,0.0,98,0.00,,,0.00,34.76,Weather logger V3.0.,2017-10-22 11:45:00,
2017-10-22 07:50:00,43.7,43.0,30.37,West,263,0.0,0.0,97,0.00,,,0.00,42.02,Weather logger V3.0.,2017-10-22 11:50:00,
2017-10-22 07:55:00,43.9,43.2,30.38,WSW,237,0.0,0.0,97,0.00,,,0.00,48.06,Weather logger V3.0.,2017-10-22 11:55:00,
2017-10-22 08:00:00,44.2,44.1,30.38,SW,235,0.0,0.0,99,0.00,,,0.00,54.49,Weather logger V3.0.,2017-10-22 12:00:00,
2017-10-22 08:05:00,44.6,44.4,30.39,SW,230,0.0,0.0,99,0.00,,,0.00,57.21,Weather logger V3.0.,2017-10-22 12:05:00,
2017-10-22 08:10:00,45.1,45.0,30.40,SSW,204,0.0,0.0,99,0.00,,,0.00,57.60,Weather logger V3.0.,2017-10-22 12:10:00,
2017-10-22 08:15:00,45.9,45.7,30.40,SSW,195,0.0,0.0,99,0.00,,,0.00,57.72,Weather logger V3.0.,2017-10-22 12:15:00,
2017-10-22 08:20:00,46.9,46.4,30.40,SE,125,0.0,0.0,98,0.00,,,0.00,55.13,Weather logger V3.0.,2017-10-22 12:20:00,
2017-10-22 08:25:00,48.0,46.4,30.40,East,92,0.0,0.0,94,0.00,,,0.00,59.82,Weather logger V3.0.,2017-10-22 12:25:00,
2017-10-22 08:31:00,48.9,46.2,30.40,ESE,117,0.0,0.0,90,0.00,,,0.00,61.10,Weather logger V3.0.,2017-10-22 12:31:00,
2017-10-22 08:36:00,50.2,45.3,30.41,East,86,0.0,0.0,83,0.00,,,0.00,58.72,Weather logger V3.0.,2017-10-22 12:36:00,
2017-10-22 08:41:00,51.3,45.7,30.40,NNE,22,0.0,0.0,81,0.00,,,0.00,63.44,Weather logger V3.0.,2017-10-22 12:41:00,
2017-10-22 08:46:00,51.8,46.6,30.40,North,4,0.4,2.5,82,0.00,,,0.00,61.31,Weather logger V3.0.,2017-10-22 12:46:00,
2017-10-22 08:47:00,52.0,46.8,30.41,NNE,21,0.4,2.5,82,0.00,,,0.00,61.36,Weather logger V3.0.,2017-10-22 12:47:00,
2017-10-22 08:52:00,52.3,47.1,30.40,East,79,0.0,0.0,82,0.00,,,0.00,62.00,Weather logger V3.0.,2017-10-22 12:52:00,
2017-10-22 08:57:00,52.7,47.1,30.40,SE,135,2.0,2.5,81,0.00,,,0.00,70.33,Weather logger V3.0.,2017-10-22 12:57:00,
2017-10-22 09:02:00,52.7,47.1,30.40,SE,130,0.0,0.0,81,0.00,,,0.00,74.95,Weather logger V3.0.,2017-10-22 13:02:00,
2017-10-22 09:07:00,53.1,46.0,30.40,South,176,0.0,0.0,77,0.00,,,0.00,80.12,Weather logger V3.0.,2017-10-22 13:07:00,
2017-10-22 09:12:00,53.8,46.0,30.40,WNW,299,0.9,2.5,75,0.00,,,0.00,80.45,Weather logger V3.0.,2017-10-22 13:12:00,
2017-10-22 09:18:00,54.3,46.9,30.40,West,267,0.0,0.0,76,0.00,,,0.00,83.04,Weather logger V3.0.,2017-10-22 13:18:00,
2017-10-22 09:23:00,55.2,47.5,30.40,South,191,1.3,2.5,75,0.00,,,0.00,86.48,Weather logger V3.0.,2017-10-22 13:23:00,
2017-10-22 09:28:00,55.9,47.5,30.40,SE,140,0.0,0.0,73,0.00,,,0.00,91.86,Weather logger V3.0.,2017-10-22 13:28:00,
2017-10-22 09:33:00,57.0,47.3,30.40,SW,219,1.1,2.5,70,0.00,,,0.00,100.09,Weather logger V3.0.,2017-10-22 13:33:00,
2017-10-22 09:39:00,58.1,46.0,30.40,WSW,253,0.0,0.0,64,0.00,,,0.00,108.84,Weather logger V3.0.,2017-10-22 13:39:00,
2017-10-22 09:44:00,59.0,45.7,30.40,North,9,2.0,2.5,61,0.00,,,0.00,118.74,Weather logger V3.0.,2017-10-22 13:44:00,
2017-10-22 09:49:00,59.7,45.0,30.40,NNE,21,3.6,4.9,58,0.00,,,0.00,138.80,Weather logger V3.0.,2017-10-22 13:49:00,
2017-10-22 09:54:00,60.8,46.0,30.40,North,0,2.9,4.9,58,0.00,,,0.00,153.40,Weather logger V3.0.,2017-10-22 13:54:00,
2017-10-22 09:59:00,61.3,45.1,30.40,NNE,12,2.0,2.5,55,0.00,,,0.00,153.94,Weather logger V3.0.,2017-10-22 13:59:00,
2017-10-22 10:04:00,62.1,45.7,30.40,NNW,337,1.1,2.5,55,0.00,,,0.00,154.70,Weather logger V3.0.,2017-10-22 14:04:00,
2017-10-22 10:09:00,62.6,45.3,30.40,North,351,0.0,0.0,53,0.00,,,0.00,174.95,Weather logger V3.0.,2017-10-22 14:09:00,
2017-10-22 10:14:00,63.1,45.9,30.40,North,10,0.9,2.5,53,0.00,,,0.00,197.17,Weather logger V3.0.,2017-10-22 14:14:00,
2017-10-22 10:19:00,63.9,46.4,30.40,NW,318,0.4,2.5,53,0.00,,,0.00,224.61,Weather logger V3.0.,2017-10-22 14:19:00,
2017-10-22 10:24:00,64.4,46.9,30.41,NNE,22,1.8,2.5,53,0.00,,,0.00,149.27,Weather logger V3.0.,2017-10-22 14:24:00,
2017-10-22 10:29:00,64.8,47.8,30.40,NNW,338,2.5,2.5,54,0.00,,,0.00,128.93,Weather logger V3.0.,2017-10-22 14:29:00,
2017-10-22 10:34:00,65.1,47.1,30.40,East,84,0.4,2.5,52,0.00,,,0.00,134.68,Weather logger V3.0.,2017-10-22 14:34:00,
2017-10-22 10:39:00,65.5,46.9,30.40,NNE,28,1.3,2.5,51,0.00,,,0.00,132.25,Weather logger V3.0.,2017-10-22 14:39:00,
2017-10-22 10:44:00,65.7,47.7,30.39,NNE,32,0.0,0.0,52,0.00,,,0.00,122.21,Weather logger V3.0.,2017-10-22 14:44:00,
2017-10-22 10:50:00,65.8,47.8,30.39,West,263,0.2,2.5,52,0.00,,,0.00,216.15,Weather logger V3.0.,2017-10-22 14:50:00,
2017-10-22 10:55:00,66.2,47.1,30.40,SSE,152,2.5,2.5,50,0.00,,,0.00,173.16,Weather logger V3.0.,2017-10-22 14:55:00,
2017-10-22 11:00:00,66.7,47.5,30.39,ESE,122,1.3,2.5,50,0.00,,,0.00,261.91,Weather logger V3.0.,2017-10-22 15:00:00,
2017-10-22 11:05:00,67.1,47.8,30.40,South,182,1.8,2.5,50,0.00,,,0.00,316.01,Weather logger V3.0.,2017-10-22 15:05:00,
2017-10-22 11:10:00,67.5,48.2,30.40,NW,306,2.5,2.5,50,0.00,,,0.00,332.80,Weather logger V3.0.,2017-10-22 15:10:00,
2017-10-22 11:15:00,67.8,48.6,30.40,WSW,246,0.4,2.5,50,0.00,,,0.00,343.55,Weather logger V3.0.,2017-10-22 15:15:00,
2017-10-22 11:20:00,68.2,48.9,30.40,South,174,2.0,4.9,50,0.00,,,0.00,356.89,Weather logger V3.0.,2017-10-22 15:20:00,
2017-10-22 11:25:00,68.4,48.6,30.38,WSW,241,1.3,2.5,49,0.00,,,0.00,380.21,Weather logger V3.0.,2017-10-22 15:25:00,
2017-10-22 11:30:00,68.5,46.9,30.40,South,180,1.3,2.5,46,0.00,,,0.00,389.44,Weather logger V3.0.,2017-10-22 15:30:00,
2017-10-22 11:35:00,68.9,45.5,30.40,SSE,153,0.4,2.5,43,0.00,,,0.00,416.71,Weather logger V3.0.,2017-10-22 15:35:00,
2017-10-22 11:40:00,69.3,45.9,30.39,ESE,116,1.1,2.5,43,0.00,,,0.00,374.29,Weather logger V3.0.,2017-10-22 15:40:00,
2017-10-22 11:45:00,69.8,46.9,30.40,ENE,74,1.8,2.5,44,0.00,,,0.00,339.78,Weather logger V3.0.,2017-10-22 15:45:00,
2017-10-22 11:46:00,69.8,46.9,30.39,NNE,24,0.9,2.5,44,0.00,,,0.00,244.20,Weather logger V3.0.,2017-10-22 15:46:00,
2017-10-22 11:51:00,70.2,46.8,30.39,WSW,245,0.0,0.0,43,0.00,,,0.00,355.45,Weather logger V3.0.,2017-10-22 15:51:00,
2017-10-22 11:56:00,70.5,46.9,30.39,SW,226,0.0,0.0,43,0.00,,,0.00,129.04,Weather logger V3.0.,2017-10-22 15:56:00,
2017-10-22 12:01:00,70.9,46.0,30.38,North,352,1.8,2.5,41,0.00,,,0.00,447.53,Weather logger V3.0.,2017-10-22 16:01:00,
2017-10-22 12:06:00,71.2,46.4,30.39,NNE,15,1.8,2.5,41,0.00,,,0.00,485.19,Weather logger V3.0.,2017-10-22 16:06:00,
2017-10-22 12:11:00,71.4,45.1,30.39,ESE,110,2.7,4.9,39,0.00,,,0.00,454.00,Weather logger V3.0.,2017-10-22 16:11:00,
2017-10-22 12:17:00,71.6,45.3,30.39,SSE,152,0.0,0.0,39,0.00,,,0.00,470.45,Weather logger V3.0.,2017-10-22 16:17:00,
2017-10-22 12:22:00,72.0,45.0,30.38,SSE,149,4.5,7.4,38,0.00,,,0.00,539.47,Weather logger V3.0.,2017-10-22 16:22:00,
2017-10-22 12:27:00,72.3,43.9,30.38,SSE,167,0.4,2.5,36,0.00,,,0.00,431.79,Weather logger V3.0.,2017-10-22 16:27:00,
2017-10-22 12:32:00,72.5,41.9,30.38,South,191,4.2,4.9,33,0.00,,,0.00,464.04,Weather logger V3.0.,2017-10-22 16:32:00,
2017-10-22 12:38:00,72.7,42.8,30.37,SSW,202,3.4,4.9,34,0.00,,,0.00,501.93,Weather logger V3.0.,2017-10-22 16:38:00,
2017-10-22 12:43:00,72.9,43.0,30.37,South,179,5.1,7.4,34,0.00,,,0.00,501.91,Weather logger V3.0.,2017-10-22 16:43:00,
2017-10-22 12:48:00,73.2,44.1,30.37,East,80,2.0,2.5,35,0.00,,,0.00,495.90,Weather logger V3.0.,2017-10-22 16:48:00,
2017-10-22 12:50:00,73.2,44.1,30.37,ESE,119,2.5,4.9,35,0.00,,,0.00,495.83,Weather logger V3.0.,2017-10-22 16:50:00,
2017-10-22 12:55:00,73.4,43.3,30.37,ENE,66,3.6,4.9,34,0.00,,,0.00,548.79,Weather logger V3.0.,2017-10-22 16:55:00,
2017-10-22 13:00:00,73.8,43.7,30.37,ENE,68,0.0,0.0,34,0.00,,,0.00,538.79,Weather logger V3.0.,2017-10-22 17:00:00,
2017-10-22 13:06:00,74.1,44.8,30.37,NNE,21,2.7,4.9,35,0.00,,,0.00,526.58,Weather logger V3.0.,2017-10-22 17:06:00,
2017-10-22 13:11:00,74.5,43.5,30.37,ENE,68,0.4,2.5,33,0.00,,,0.00,521.91,Weather logger V3.0.,2017-10-22 17:11:00,
2017-10-22 13:16:00,74.7,45.3,30.37,ESE,113,2.5,4.9,35,0.00,,,0.00,520.58,Weather logger V3.0.,2017-10-22 17:16:00,
2017-10-22 13:21:00,74.8,46.2,30.36,East,94,0.0,0.0,36,0.00,,,0.00,523.01,Weather logger V3.0.,2017-10-22 17:21:00,
2017-10-22 13:26:00,74.8,44.6,30.36,East,94,2.5,2.5,34,0.00,,,0.00,515.97,Weather logger V3.0.,2017-10-22 17:26:00,
2017-10-22 13:31:00,75.0,44.1,30.36,SE,136,8.3,9.8,33,0.00,,,0.00,521.41,Weather logger V3.0.,2017-10-22 17:31:00,
2017-10-22 13:36:00,75.0,44.1,30.36,ESE,102,2.0,2.5,33,0.00,,,0.00,523.32,Weather logger V3.0.,2017-10-22 17:36:00,
2017-10-22 13:41:00,75.0,46.4,30.36,ESE,104,1.3,2.5,36,0.00,,,0.00,306.43,Weather logger V3.0.,2017-10-22 17:41:00,
2017-10-22 13:46:00,75.0,45.5,30.36,SE,142,1.1,2.5,35,0.00,,,0.00,310.32,Weather logger V3.0.,2017-10-22 17:46:00,
2017-10-22 13:51:00,75.2,45.7,30.36,SE,139,2.5,2.5,35,0.00,,,0.00,525.63,Weather logger V3.0.,2017-10-22 17:51:00,
2017-10-22 13:56:00,75.4,45.1,30.35,ESE,120,2.0,2.5,34,0.00,,,0.00,527.54,Weather logger V3.0.,2017-10-22 17:56:00,
2017-10-22 14:02:00,75.6,44.4,30.35,ENE,69,0.9,2.5,33,0.00,,,0.00,529.07,Weather logger V3.0.,2017-10-22 18:02:00,
2017-10-22 14:07:00,75.7,43.0,30.36,SE,130,2.9,4.9,31,0.00,,,0.00,383.82,Weather logger V3.0.,2017-10-22 18:07:00,
2017-10-22 14:12:00,75.9,43.2,30.36,SE,134,2.0,2.5,31,0.00,,,0.00,322.65,Weather logger V3.0.,2017-10-22 18:12:00,
2017-10-22 14:17:00,76.1,45.0,30.35,SSE,158,5.1,7.4,33,0.00,,,0.00,339.89,Weather logger V3.0.,2017-10-22 18:17:00,
2017-10-22 14:22:00,76.3,45.1,30.35,West,278,0.9,2.5,33,0.00,,,0.00,490.24,Weather logger V3.0.,2017-10-22 18:22:00,
2017-10-22 14:27:00,76.6,44.6,30.36,SE,130,1.1,2.5,32,0.00,,,0.00,326.76,Weather logger V3.0.,2017-10-22 18:27:00,
2017-10-22 14:32:00,76.6,45.5,30.35,East,85,0.2,2.5,33,0.00,,,0.00,283.46,Weather logger V3.0.,2017-10-22 18:32:00,
2017-10-22 14:38:00,76.5,46.0,30.35,ENE,71,1.8,2.5,34,0.00,,,0.00,480.33,Weather logger V3.0.,2017-10-22 18:38:00,
2017-10-22 14:43:00,76.3,44.2,30.35,NNE,26,0.4,2.5,32,0.00,,,0.00,503.51,Weather logger V3.0.,2017-10-22 18:43:00,
2017-10-22 14:48:00,76.5,44.4,30.35,ESE,115,0.0,0.0,32,0.00,,,0.00,512.43,Weather logger V3.0.,2017-10-22 18:48:00,
2017-10-22 14:53:00,76.6,44.6,30.35,ENE,63,5.8,7.4,32,0.00,,,0.00,480.95,Weather logger V3.0.,2017-10-22 18:53:00,
2017-10-22 14:58:00,76.6,43.9,30.35,SE,141,1.8,2.5,31,0.00,,,0.00,357.88,Weather logger V3.0.,2017-10-22 18:58:00,
2017-10-22 15:03:00,76.6,45.5,30.36,ESE,103,2.9,4.9,33,0.00,,,0.00,202.42,Weather logger V3.0.,2017-10-22 19:03:00,
2017-10-22 15:08:00,76.6,46.2,30.35,SE,128,2.5,2.5,34,0.00,,,0.00,131.40,Weather logger V3.0.,2017-10-22 19:08:00,
2017-10-22 15:13:00,76.5,46.8,30.36,SE,132,1.1,2.5,35,0.00,,,0.00,156.61,Weather logger V3.0.,2017-10-22 19:13:00,
2017-10-22 15:18:00,76.1,48.7,30.35,ENE,64,0.0,0.0,38,0.00,,,0.00,259.15,Weather logger V3.0.,2017-10-22 19:18:00,
2017-10-22 15:23:00,75.9,47.8,30.35,East,97,0.4,2.5,37,0.00,,,0.00,244.58,Weather logger V3.0.,2017-10-22 19:23:00,
2017-10-22 15:29:00,75.6,46.8,30.35,ESE,103,2.0,2.5,36,0.00,,,0.00,156.14,Weather logger V3.0.,2017-10-22 19:29:00,
2017-10-22 15:34:00,75.4,46.6,30.35,East,93,1.1,2.5,36,0.00,,,0.00,320.65,Weather logger V3.0.,2017-10-22 19:34:00,
2017-10-22 15:39:00,75.2,47.1,30.35,SE,127,6.0,9.8,37,0.00,,,0.00,408.87,Weather logger V3.0.,2017-10-22 19:39:00,
2017-10-22 15:44:00,75.2,46.4,30.36,SSW,202,0.4,2.5,36,0.00,,,0.00,163.70,Weather logger V3.0.,2017-10-22 19:44:00,
2017-10-22 15:49:00,75.0,49.1,30.35,SSE,156,3.4,4.9,40,0.00,,,0.00,154.63,Weather logger V3.0.,2017-10-22 19:49:00,
2017-10-22 15:54:00,74.8,50.2,30.35,SE,124,2.0,2.5,42,0.00,,,0.00,282.43,Weather logger V3.0.,2017-10-22 19:54:00,
2017-10-22 15:59:00,74.7,50.2,30.36,SE,130,5.1,7.4,42,0.00,,,0.00,365.27,Weather logger V3.0.,2017-10-22 19:59:00,
2017-10-22 16:04:00,74.5,50.5,30.35,ESE,119,8.1,9.8,43,0.00,,,0.00,326.36,Weather logger V3.0.,2017-10-22 20:04:00,
2017-10-22 16:10:00,74.1,50.2,30.35,East,101,5.8,7.4,43,0.00,,,0.00,398.89,Weather logger V3.0.,2017-10-22 20:10:00,
2017-10-22 16:15:00,73.9,49.5,30.35,East,98,5.8,7.4,42,0.00,,,0.00,393.85,Weather logger V3.0.,2017-10-22 20:15:00,
2017-10-22 16:20:00,73.8,50.5,30.36,SE,129,4.9,7.4,44,0.00,,,0.00,349.14,Weather logger V3.0.,2017-10-22 20:20:00,